Flag for U.S.A. Weather past 2 weeks in Mesquite, Texas, U.S.A.

Now
67 °F

Clear.


Feels Like: 67 °F
Forecast: 64 / 86 °F
Wind: 5 mph from South

Location: Mesquite Metro Airport

Current Time: Oct 25, 2014 at 11:34:36 PM

Latest Report: Oct 25, 2014 at 11:15 PM


Visibility: 10 mi

Pressure: 30.06 "Hg

Humidity: 81%

Dew point: 61 °F

Location of MesquiteLocation

Historic Weather in Mesquite — Graph

°F

Mesquite temperature yesterday

Maximum temperature yesterday: 82 °F (at 4:50 PM)
Minimum temperature yesterday: 56 °F (at 4:55 AM)
Average temperature yesterday: 65 °F

Past Weeks' High & Low Weather Summary

 TemperatureHumidityPressure
High88 °F (Oct 16, 2:50 PM)100% (Oct 12, 7:50 PM)30.19 "Hg (Oct 12, 7:50 PM)
Low46 °F (Oct 15, 7:50 AM)22% (Oct 14, 3:50 PM)29.59 "Hg (Oct 13, 2:35 AM)
Average64 °F73%30.02 "Hg
* Reported Oct 10 10:15 PM — Oct 25 10:15 PM, Mesquite, Weather by CustomWeather, © 2014

Note: Actual official high and low records may vary slightly from our data, if they occured in-between our weather recording intervals... More about our weather records

Advertising

Mesquite weather history for previous 24 hours

 ConditionsComfort  
Time TempWeatherWind HumidityBarometerVisibility
10:15 PM
Oct 25
69 °FClear.6 mph75%30.07 "Hg10 mi
9:55 PM70 °FClear.5 mph73%30.06 "Hg10 mi
7:50 PM75 °FClear.5 mph61%30.06 "Hg10 mi
6:50 PM81 °FSunny.6 mph48%30.05 "Hg10 mi
5:50 PM84 °FSunny.6 mph40%30.05 "Hg10 mi
4:50 PM88 °FSunny.5 mph35%30.07 "Hg10 mi
3:50 PM88 °FSunny.5 mph35%30.07 "Hg10 mi
2:50 PM86 °FSunny.5 mph38%30.08 "Hg10 mi
1:50 PM84 °FSunny.7 mph43%30.10 "Hg10 mi
11:50 AM81 °FSunny.8 mph51%30.15 "Hg10 mi
10:50 AM75 °FSunny.8 mph57%30.16 "Hg10 mi
9:50 AM72 °FSunny.8 mph65%30.16 "Hg10 mi
8:50 AM63 °FSunny.8 mph88%30.15 "Hg10 mi
7:50 AM59 °FClear.6 mph94%30.14 "Hg10 mi
6:50 AM59 °FClear.5 mph94%30.13 "Hg10 mi
5:35 AM60 °FClear.5 mph94%30.12 "Hg10 mi
5:15 AM60 °FClear.5 mph94%30.12 "Hg10 mi
4:55 AM59 °FClear.5 mph95%30.12 "Hg10 mi
4:15 AM60 °FClear.5 mph94%30.11 "Hg10 mi
3:55 AM60 °FClear.5 mph94%30.11 "Hg10 mi
3:35 AM61 °FClear.3 mph92%30.11 "Hg10 mi
3:15 AM61 °FClear.5 mph91%30.11 "Hg10 mi
2:55 AM62 °FClear.3 mph88%30.12 "Hg10 mi
2:35 AM63 °FClear.3 mph87%30.11 "Hg10 mi
2:15 AM63 °FClear.3 mph87%30.11 "Hg10 mi
1:55 AM63 °FClear.5 mph88%30.11 "Hg10 mi
1:35 AM63 °FClear.5 mph87%30.11 "Hg10 mi
1:15 AM64 °FClear.5 mph84%30.11 "Hg10 mi
12:55 AM64 °FClear.6 mph85%30.11 "Hg10 mi
12:35 AM64 °FClear.5 mph83%30.11 "Hg10 mi
12:15 AM65 °FClear.6 mph82%30.11 "Hg10 mi
11:55 PM
Oct 24
65 °FClear.6 mph80%30.11 "Hg10 mi
11:35 PM66 °FClear.6 mph79%30.11 "Hg10 mi
11:15 PM66 °FClear.6 mph78%30.11 "Hg10 mi
Weather by CustomWeather, © 2014

See weather overviewHow to use our weather pages